Vertical_Velocity
-3 -0 -5 -6 -3 -2 -6 1 2 1 -1 5 6 5 7 4 -1 -3 -1 -1 -1 -1 0 0 1 2 3 3 3 1 0 -0 -1 -1 -0 -0 -0 0 0 1 1 1 1 2 2 2 1 1 1 1 -0 -0 -1 -0 -0 -0 -0 0 1 2 2 2 1 1 1 1 1 1 1 1 1 1 1 1 1 -0 -1 -0 -0 -1 -1 -0 -0 -0 0 0
-1 -0 -5 -6 -4 -4 -7 1 3 2 1 5 6 6 7 4 1 -1 -1 -1 -1 -1 -1 -1 0 2 3 4 4 3 1 -0 -1 -1 -1 -1 -1 -0 0 0 1 1 1 1 2 2 1 1 1 0 -0 -0 -1 -0 -0 -0 0 1 1 2 2 1 1 1 1 1 1 1 1 1 1 1 1 0 1 0 0 -0 -0 -1 -1 -1 -1 -0 -0 -0
1 -4 -6 -2 -4 -7 -6 0 1 1 3 6 7 7 6 4 2 1 1 -0 -1 -1 -2 -1 -0 1 2 5 6 5 3 1 -1 -2 -2 -1 -1 -0 -0 -0 0 0 1 1 1 1 1 1 1 0 -0 -0 -0 -0 -0 -0 0 1 2 2 1 1 1 1 1 1 0 1 1 1 1 1 1 1 1 1 0 0 -0 -1 -0 -0 -0 -0 -0 -0
3 -4 -5 1 -3 -8 -4 1 -0 -2 2 5 6 7 7 5 4 3 3 1 -0 -1 -1 -1 -0 0 1 3 5 5 5 3 1 -1 -2 -1 -1 -0 -0 -0 -0 -0 0 1 1 1 1 1 1 0 0 0 -0 -0 -0 0 1 1 2 2 1 1 1 1 1 1 1 1 1 1 1 1 1 1 1 1 0 0 -0 0 0 0 1 0 0 -0
4 0 -2 3 -3 -9 -4 2 0 -2 0 2 4 6 8 6 5 4 3 1 0 -0 -0 0 -0 -1 -0 0 2 4 5 4 2 0 -1 -1 -1 -1 -1 -1 -1 -1 -0 0 1 1 1 1 0 0 0 0 0 -0 -0 0 1 1 1 1 1 1 1 1 1 0 0 1 1 1 1 1 1 1 1 1 0 0 1 1 1 1 1 0 0 -0
4 4 1 1 -3 -6 -1 -0 -0 0 1 -0 2 4 6 6 6 4 2 2 1 0 0 1 0 -1 -1 -1 0 2 4 3 2 1 -1 -1 -1 -1 -1 -1 -1 -1 -0 0 0 1 1 0 0 0 0 0 0 0 0 0 1 1 1 1 1 1 1 1 1 0 0 1 1 1 1 1 1 1 1 1 1 1 1 1 1 1 1 0 0 -0
1 4 5 -0 -3 -3 1 -2 -0 2 2 -1 -0 2 4 5 5 4 2 2 1 -0 -0 0 1 0 -1 -1 0 1 2 2 2 1 0 -0 -0 -1 -1 -1 -1 -1 -0 0 0 1 1 1 0 0 0 0 0 0 0 1 1 1 1 1 1 1 2 1 1 1 1 1 1 1 1 1 1 1 1 1 1 1 1 1 1 1 1 0 0 -0
-3 -0 7 1 -2 -2 -1 -1 1 3 2 0 0 1 0 2 3 4 3 2 0 -0 0 1 1 2 1 2 2 1 1 2 2 2 2 1 0 -0 -0 -1 -1 -1 -0 0 0 1 1 1 1 1 1 0 0 0 1 1 2 2 1 1 1 1 1 1 1 1 1 1 1 1 1 1 1 1 1 1 1 1 1 1 1 1 0 0 0 -0
-2 -2 2 3 2 -1 -4 -3 0 4 3 1 2 2 0 -1 0 1 2 0 1 2 2 1 1 3 4 5 4 3 2 3 3 3 3 2 1 1 0 -0 -1 -0 -0 0 0 0 0 0 1 1 1 0 0 0 1 1 1 1 1 1 1 1 1 1 1 1 1 1 2 2 2 2 1 1 1 1 1 1 1 1 1 0 0 0 0 0
-0 -0 -0 1 2 2 -1 -4 -2 2 3 2 2 2 2 -0 -0 -0 -1 -1 1 4 2 1 2 4 5 5 4 3 2 2 2 3 3 2 2 1 0 -0 -1 -1 -1 -0 -0 -0 -0 0 0 0 0 0 0 0 0 1 1 1 1 1 1 1 1 1 2 2 1 1 2 2 2 1 1 1 1 1 1 1 1 1 1 0 0 0 0 0
-1 0 2 -0 0 1 2 -0 -0 1 1 1 0 0 1 3 4 2 -3 -3 -0 2 1 1 2 4 5 5 4 3 1 -0 0 1 2 2 2 1 0 -1 -1 -1 -1 -1 -1 -1 -1 -0 -0 -0 -0 -0 0 0 1 1 1 1 1 1 1 1 1 1 2 2 1 1 1 1 1 1 1 1 1 1 1 1 1 1 1 0 0 0 -0 -0
-1 -0 1 0 -0 0 1 2 2 2 0 0 -1 -2 -1 5 7 5 -2 -4 -2 -0 -1 -0 1 2 5 5 4 2 -0 -1 -1 0 1 1 1 1 -0 -1 -1 -1 -1 -1 -2 -2 -1 -1 -1 -1 -1 -1 -0 0 1 1 1 1 1 1 2 2 1 2 2 2 1 1 1 1 1 1 1 1 0 1 1 1 1 1 1 0 0 0 -0 -0
0 1 1 -1 -1 0 2 2 2 0 0 1 1 0 1 4 5 2 -2 -3 -2 -1 -0 -2 -2 -0 3 5 5 3 -0 -1 -1 0 1 1 1 1 -0 -1 -1 -1 -1 -2 -2 -2 -1 0 -0 -1 -0 -0 -0 0 1 1 1 1 2 2 2 2 2 2 1 1 1 1 1 1 1 1 1 0 0 0 1 1 1 1 0 0 0 -0 -0 -0
0 2 1 -1 -1 0 3 3 2 1 -0 2 3 3 3 2 -0 -2 -2 -2 -0 1 1 -3 -4 -2 0 3 4 4 2 0 -0 0 1 2 2 2 2 0 -0 -0 -0 -2 -3 -3 -0 1 -0 -1 -0 1 1 1 2 2 1 2 2 2 2 3 2 2 1 1 1 1 1 1 1 1 0 -0 -0 0 0 1 1 0 0 0 -0 -0 -0 -0
2 3 0 -2 -1 1 2 3 2 1 1 3 3 3 2 -0 -1 -2 -1 -2 0 2 0 -3 -4 -3 -1 2 4 5 4 2 1 1 2 3 4 5 4 3 1 1 1 -1 -3 -2 1 1 -1 -2 1 2 2 2 3 3 2 3 3 3 3 3 3 2 1 1 1 1 1 1 1 1 0 -0 -0 0 0 0 0 0 -0 -0 -0 -0 -0 -0
4 4 -0 -1 -0 2 3 3 2 1 2 3 3 2 1 -1 -1 -0 -0 -1 0 1 -1 -3 -4 -4 -3 2 4 5 5 4 2 2 2 4 5 6 6 4 2 1 1 -0 -1 -0 2 1 -1 -1 1 2 3 4 4 4 4 4 4 4 4 3 3 2 1 1 1 1 1 1 1 1 0 0 -0 -0 0 0 -0 -0 -0 -0 -0 -0 -0 -1
3 2 1 1 1 1 4 4 3 2 3 3 2 2 1 -0 0 0 0 0 0 -1 -2 -2 -3 -4 -4 -0 3 5 7 5 3 1 2 2 4 6 5 3 1 -0 1 1 1 1 2 0 -0 -0 0 2 4 6 6 5 5 4 4 4 4 3 2 2 1 1 1 1 1 1 1 0 0 -0 -0 -0 -0 -0 -0 -0 -0 -0 -0 -0 -0 -1
1 2 3 1 1 2 5 3 2 2 4 3 3 2 2 1 2 2 1 1 0 -1 -1 -1 -2 -2 -1 -0 1 4 6 5 2 -1 -1 0 2 4 3 1 -1 -1 -0 0 1 1 1 0 -0 0 1 3 5 6 5 5 5 5 4 4 3 3 2 1 1 1 1 1 1 1 1 0 -0 -0 -0 -1 -1 -0 -0 -0 -0 -0 -0 -0 -0 -0
-2 2 2 -0 0 2 3 2 1 2 3 3 4 3 1 1 2 3 2 2 2 1 0 -1 -2 -1 1 2 2 1 0 2 1 -2 -2 0 2 2 1 -0 -1 -2 -2 -0 1 1 1 -0 -0 1 2 4 4 5 5 5 4 4 4 3 3 2 1 1 1 1 1 1 1 1 1 0 -0 -0 -1 -1 -1 -0 -0 -0 -0 -1 -1 -0 -0 -0
-3 -0 0 1 1 0 -2 -1 2 4 3 3 3 3 -0 1 1 1 1 3 3 2 1 -0 -1 -0 2 3 1 -2 -4 -0 0 -0 -1 1 2 2 2 1 -1 -2 -3 -1 1 1 0 -1 -1 0 1 2 3 3 4 4 3 3 3 3 3 2 2 1 1 1 1 1 1 1 0 -0 -0 -1 -1 -0 -0 -0 -0 -0 -1 -1 -1 -1 -1 -1
-2 -1 2 6 4 -1 -6 -2 2 4 4 3 1 -0 -1 1 1 1 1 3 3 2 1 0 1 2 3 2 -0 -2 -4 -1 0 -0 -1 1 3 4 5 3 1 -1 -2 -0 1 1 0 -1 -1 -0 1 1 2 2 3 2 2 2 2 2 2 2 1 1 1 1 1 1 1 1 0 -0 -0 -1 -1 -0 -0 -0 -0 -0 -0 -1 -1 -1 -1 -1
-3 -2 3 7 5 -0 -3 -0 1 1 2 1 -0 -2 -0 2 2 1 2 3 3 2 1 2 3 3 2 -0 -1 -3 -3 -1 0 -0 -2 -0 2 4 6 4 2 -0 -1 0 2 2 0 -0 -1 -0 1 1 2 2 2 2 2 2 2 2 2 1 1 1 1 1 1 1 1 1 0 -0 -0 -0 -0 -0 -0 0 0 0 -0 -0 -1 -1 -1 -1
-4 -3 1 4 3 1 0 1 0 -1 -0 -1 -2 -2 1 3 2 1 1 2 2 1 1 2 3 2 0 -0 -1 -2 -3 -0 0 0 -1 -2 -1 2 5 3 1 -0 -1 2 3 2 0 -0 -0 0 1 1 1 1 1 1 1 1 1 1 1 1 1 1 1 1 1 1 1 0 0 -0 -1 -1 -0 -0 0 0 0 0 0 -0 -1 -1 -1 -1
-2 -3 -2 0 1 1 2 2 1 -0 -1 -2 -3 -2 0 2 3 2 2 2 1 1 1 2 1 0 -1 0 -0 -1 -3 -0 1 0 -1 -2 -1 1 2 2 1 -1 -1 2 3 2 0 -1 -0 0 1 1 1 1 1 2 2 2 2 2 2 2 2 2 2 2 1 1 1 0 -0 -0 -1 -1 -0 0 0 0 0 0 0 0 -0 -1 -1 -1
-0 -1 -2 -0 1 2 2 2 2 1 -0 -2 -3 -2 -1 1 1 2 1 1 1 1 1 1 -0 -1 -0 2 1 -1 -1 0 1 0 -1 -2 -1 -0 1 1 0 -0 -0 1 2 1 -0 -1 -1 -0 0 1 1 1 1 2 2 2 2 2 2 2 2 2 2 1 1 1 0 -0 -0 -1 -1 -0 -0 0 0 1 1 1 1 1 0 0 -0 -1
1 0 -0 0 1 2 2 2 1 1 1 -0 -1 -2 -1 0 0 0 -1 -1 0 2 3 0 -1 -1 2 2 1 -0 1 1 1 0 0 -1 -2 -2 -1 1 1 0 -0 0 1 0 -1 -2 -1 -1 -0 0 1 1 1 2 2 2 2 2 2 2 2 2 1 1 1 1 0 -0 -1 -1 -0 -0 -0 0 0 0 1 1 1 1 1 1 -0 -1
1 1 0 -0 -1 -0 0 1 1 1 0 -0 -1 -1 0 1 -0 -2 -5 -2 2 4 2 -0 -0 1 3 1 -0 0 3 2 1 1 2 -0 -3 -4 -2 0 1 1 -0 -0 0 -0 -1 -2 -2 -1 -0 0 1 1 1 1 1 1 2 1 1 1 1 1 1 1 1 0 0 -0 -0 -0 -0 -0 -0 0 0 0 1 1 1 2 2 1 -0 -2
0 1 1 -0 -1 -2 -2 -1 -1 -0 -0 -1 -1 -1 -1 -0 -1 -4 -6 1 4 4 -1 -1 0 2 1 -0 0 1 3 1 1 2 4 1 -3 -5 -2 1 1 0 0 -0 -0 -0 -1 -2 -2 -1 -0 0 1 1 1 1 1 1 1 1 1 1 1 1 1 1 1 0 0 -0 -0 -0 -0 -0 -0 -0 0 0 1 1 2 2 2 0 -1 -2
-1 -0 -0 0 0 -0 -1 -2 -2 -2 -1 -1 -1 -2 -3 -3 -4 -3 -2 4 5 2 -3 -1 2 3 2 2 2 1 -0 -1 1 4 5 1 -3 -4 0 1 0 -1 1 0 -1 -2 -2 -1 -1 -1 -0 1 1 1 1 1 1 1 1 0 1 1 1 1 1 1 0 0 0 0 -0 -0 -0 -0 -0 -0 -0 0 1 2 3 3 1 -0 -2 -3
-0 -0 -1 -1 0 1 0 -0 -1 -2 -2 -1 -1 -2 -4 -6 -5 -2 2 4 3 0 -2 0 2 4 4 4 2 -1 -4 -1 3 5 5 1 -2 -2 2 1 -0 -1 1 0 -1 -3 -3 -1 1 1 1 1 1 1 1 1 1 0 0 0 0 0 1 1 1 1 1 0 0 0 -0 -0 -0 -0 -0 -0 -0 0 1 2 3 2 0 -1 -2 -3
1 1 -0 -0 -0 0 -0 -0 -0 -0 -0 -0 -0 -1 -3 -6 -7 -4 0 2 2 1 1 2 3 4 4 4 1 -2 -4 2 5 6 5 1 -0 -0 3 1 -0 -1 0 0 -1 -4 -4 -1 1 3 3 1 1 1 1 1 1 0 0 0 -0 0 1 1 1 1 0 0 0 -0 -0 -0 -0 -0 -0 -0 -0 0 1 2 3 2 -0 -1 -2 -3
2 1 1 1 1 0 -1 -1 -1 -1 -0 -0 0 0 -0 -3 -5 -6 -4 -2 0 2 2 2 3 3 4 3 1 -1 -1 3 4 4 4 2 1 1 3 2 0 -1 -0 0 -1 -2 -3 -2 0 3 4 2 1 1 1 1 1 0 0 -0 -0 0 1 1 1 0 -0 0 0 0 0 0 0 0 0 -0 -0 0 1 3 3 2 -0 -1 -2 -3
1 1 1 2 1 1 0 -0 -1 -1 -1 -1 -0 0 1 1 -1 -4 -7 -5 -2 0 2 2 3 3 3 2 1 1 3 4 4 3 4 3 2 2 2 2 1 0 -0 -0 -1 -1 -2 -2 -0 2 4 2 1 1 1 1 1 1 0 0 0 1 2 1 0 -0 -0 0 1 1 1 1 1 1 0 0 -0 0 1 3 3 2 0 -1 -2 -3
1 1 2 2 2 2 2 2 1 0 -1 -1 -1 0 1 3 3 1 -4 -6 -6 -3 -0 1 3 3 3 1 1 1 3 4 5 4 4 3 2 2 3 2 1 1 1 -0 -1 -1 -2 -2 -0 1 2 2 2 2 1 1 1 1 1 1 1 1 2 1 1 0 0 1 1 1 1 1 1 1 0 0 0 1 2 3 3 2 1 -0 -2 -2
1 1 2 2 2 2 3 3 3 2 1 0 0 0 1 3 5 5 2 -3 -6 -7 -5 -1 2 4 4 2 -0 -1 1 5 7 6 4 2 2 2 2 1 1 1 1 -0 -1 -1 -1 -1 -0 1 1 2 2 2 2 2 2 2 1 1 1 2 2 2 2 2 2 2 1 1 1 1 1 1 0 0 1 1 2 3 3 2 1 0 -1 -2
1 1 3 2 2 2 2 3 3 3 3 2 2 2 2 3 4 5 5 1 -3 -6 -7 -5 -2 1 2 2 1 -0 0 5 7 6 4 2 1 1 0 -0 1 2 1 -0 -1 -0 0 -0 0 1 1 0 1 2 3 3 3 2 1 1 1 2 3 3 3 3 2 2 1 1 1 1 1 1 0 1 2 2 2 2 2 2 2 1 -1 -2
0 1 2 3 3 2 2 3 3 4 4 4 3 3 2 2 2 2 2 1 -1 -4 -6 -6 -5 -3 -0 1 2 2 3 4 4 4 3 3 2 1 0 0 1 2 1 -0 -0 -0 1 1 0 0 -0 -1 -0 1 4 4 4 2 1 1 2 2 3 3 3 3 2 1 1 1 2 1 1 1 1 2 2 2 1 1 2 2 2 1 -1 -2
-2 -1 2 3 3 2 2 4 5 6 6 6 4 3 1 -0 -1 -1 -1 -0 -1 -2 -3 -5 -5 -4 -2 -0 1 2 4 3 2 1 3 3 2 1 1 1 1 1 1 1 1 1 1 1 0 -0 -1 -1 0 2 3 3 3 1 1 2 2 2 2 2 2 2 1 1 1 1 2 1 1 1 1 2 2 2 1 2 2 3 3 1 -1 -2
-4 -2 0 2 2 2 1 2 5 8 9 8 6 4 1 -0 -1 -2 -1 -1 -0 -1 -1 -2 -3 -3 -3 -1 -0 1 2 2 1 1 2 2 2 2 2 2 1 1 2 3 2 1 1 0 -0 0 0 1 2 2 2 1 1 1 2 2 2 2 2 3 3 2 1 1 1 1 1 1 1 1 1 1 2 2 2 2 3 4 4 1 -1 -3
-4 -3 -2 1 2 2 1 1 4 6 8 8 7 5 2 1 -0 -1 -1 -0 -0 -0 -0 -0 -1 -2 -2 -2 -1 -0 1 1 1 1 1 1 1 2 3 3 2 2 3 3 2 1 0 0 0 1 2 2 2 2 2 0 0 1 2 1 0 1 3 4 3 2 1 1 1 1 1 1 1 1 1 1 2 2 2 2 3 3 3 1 -1 -3
-3 -3 -2 0 2 3 2 2 3 4 5 6 6 5 4 3 2 1 -0 -0 -1 -1 -0 0 -0 -1 -1 -1 -1 -1 0 1 1 2 1 1 2 2 2 2 2 2 2 2 1 1 1 1 1 1 1 1 1 1 0 0 1 2 1 -1 -1 1 3 3 1 1 1 1 1 2 2 2 2 2 1 1 1 1 2 3 2 2 2 0 -1 -2
-2 -2 -1 1 2 1 1 1 1 1 2 3 4 5 6 6 5 3 1 0 -1 -1 -0 0 0 -0 -1 -1 -1 -0 0 0 1 2 2 2 2 3 2 2 3 3 2 1 0 0 1 2 2 1 0 1 1 0 -1 1 2 3 1 -1 0 1 1 -0 0 1 1 1 2 3 3 3 2 2 2 2 1 1 2 2 2 1 1 -0 -2 -3
-1 -1 -0 0 0 0 0 -0 -1 -1 -0 1 2 4 7 8 7 5 2 1 1 1 1 1 0 -0 -2 -3 -3 -2 -0 0 1 2 2 1 2 2 3 3 3 3 3 1 0 -0 1 2 2 1 1 1 1 -1 -2 0 2 2 0 1 2 1 -2 -1 1 3 1 0 1 3 4 3 3 3 2 1 1 1 2 2 1 0 0 -1 -2 -4
-1 -1 -0 -0 -0 -0 -1 -2 -2 -2 -1 -1 0 3 6 8 7 5 2 1 1 2 3 2 2 0 -2 -4 -4 -3 -2 -0 1 2 1 1 1 2 3 4 3 3 3 2 0 -0 1 2 1 1 2 2 1 -1 -2 0 1 1 1 2 1 -1 -5 -1 2 3 -0 -1 0 2 4 4 4 3 2 1 1 1 2 1 0 -0 -0 -1 -2 -4
-1 -1 -1 -1 -1 -1 -2 -2 -1 -1 -1 -2 -1 1 5 7 7 5 3 2 2 2 3 4 3 2 -0 -1 -1 -2 -2 -2 -0 1 1 1 1 2 2 3 3 3 2 1 1 1 1 0 1 2 4 3 0 -1 -2 -1 0 1 1 2 1 -1 -3 0 2 1 -1 -1 0 2 4 4 3 1 -1 -1 0 1 1 1 0 -1 -1 -1 -2 -4
-0 -0 -0 -0 -0 -1 -2 -1 -1 -1 -3 -2 -1 1 4 6 6 5 4 3 3 3 3 4 3 1 -1 -0 0 0 -1 -2 -1 0 1 1 1 1 1 2 2 2 1 1 1 1 -0 -1 0 2 4 2 -1 -2 -2 -1 -0 -0 0 2 1 -0 -2 -0 0 1 0 0 0 2 4 3 1 -1 -3 -2 -0 1 1 1 -0 -1 -2 -2 -3 -4
0 0 0 0 -0 -0 -1 -0 -1 -2 -3 -2 -1 1 3 4 5 6 5 4 4 3 3 2 1 0 -1 0 1 1 -1 -1 -1 0 1 1 1 1 0 1 1 2 1 0 0 -0 -1 -1 0 2 2 0 -2 -4 -3 -1 -1 -1 -1 1 1 -0 -2 -2 -0 2 2 1 1 2 4 2 -1 -4 -4 -2 -1 -1 -1 -0 -0 -1 -1 -2 -3 -3
0 0 0 0 0 -0 -1 -0 -1 -1 -3 -2 -1 0 1 3 4 5 6 6 5 4 3 1 0 0 0 1 1 1 -0 -1 -0 0 1 1 1 1 1 1 1 1 1 0 -0 -1 -1 -1 -0 0 -0 -2 -3 -5 -4 -2 -1 -1 -1 0 0 -0 -2 -1 1 3 2 0 1 2 4 1 -1 -3 -3 -3 -4 -4 -2 -1 -0 -0 -0 -1 -2 -2
0 -0 -0 0 0 -0 -1 -0 -0 -1 -2 -2 -1 -0 0 1 3 4 5 5 5 4 2 1 0 0 1 1 2 1 1 0 -0 0 1 1 2 2 1 1 1 1 1 0 -0 -0 -1 -1 -2 -2 -2 -2 -4 -5 -5 -3 -1 -1 -1 -1 -1 -1 -1 -0 1 3 2 -0 -0 1 2 0 -1 -1 -1 -4 -6 -7 -3 -1 -0 -0 1 1 0 -1
0 -0 -0 0 -0 -0 -1 -0 -0 -1 -1 -1 -1 -0 0 1 2 2 3 4 4 3 2 1 1 1 1 2 2 2 2 1 1 1 1 2 2 2 2 2 1 1 0 0 -0 -1 -1 -2 -3 -4 -3 -2 -3 -4 -5 -4 -2 -0 -1 -2 -2 -1 -1 -1 0 2 3 0 -1 -0 0 -1 -1 -1 -1 -4 -7 -7 -4 -2 -1 0 2 3 1 -0
0 0 0 0 0 0 0 0 0 -0 -1 -0 -0 -0 0 1 2 2 3 3 2 2 2 2 2 2 1 2 3 3 2 2 1 1 2 2 3 3 3 2 2 1 0 -0 -1 -1 -2 -4 -5 -6 -5 -2 -1 -1 -3 -3 -1 -0 -2 -3 -1 0 -1 -3 -2 0 2 0 -1 -1 -1 -1 -2 -1 -1 -3 -5 -7 -6 -3 -1 1 4 4 1 -1
Height
2938 2936 2935 2935 2935 2933 2933 2933 2934 2934 2933 2934 2936 2937 2938 2938 2938 2939 2939 2939 2939 2939 2939 2939 2939 2940 2940 2940 2940 2940 2941 2941 2941 2941 2941 2942 2942 2942 2942 2942 2942 2942 2942 2943 2943 2943 2944 2945 2946 2946 2947 2948 2949 2950 2951 2952 2953 2955 2956 2958 2959 2960 2960 2961 2962 2963 2963 2964 2964 2965 2967 2968 2968 2969 2970 2970 2971 2971 2972 2973 2973 2974 2975 2976 2976 2977
2934 2932 2930 2930 2930 2929 2928 2928 2928 2929 2929 2929 2930 2931 2932 2933 2933 2933 2934 2934 2935 2934 2935 2935 2935 2935 2935 2936 2936 2936 2936 2936 2937 2937 2937 2937 2937 2938 2938 2938 2938 2938 2938 2938 2939 2939 2940 2941 2941 2942 2943 2944 2945 2946 2947 2948 2949 2951 2953 2954 2955 2956 2956 2957 2958 2959 2959 2960 2961 2962 2963 2963 2964 2965 2966 2967 2967 2968 2968 2969 2969 2970 2971 2972 2973 2973
2930 2928 2926 2925 2924 2924 2923 2923 2923 2923 2924 2924 2924 2926 2927 2927 2928 2928 2929 2930 2930 2930 2930 2930 2930 2930 2931 2931 2931 2932 2932 2932 2932 2932 2933 2933 2933 2933 2933 2933 2933 2934 2934 2934 2935 2935 2936 2937 2937 2938 2939 2940 2941 2942 2943 2944 2946 2947 2949 2950 2951 2952 2953 2953 2954 2955 2956 2956 2957 2958 2959 2960 2960 2961 2961 2962 2963 2964 2965 2965 2966 2967 2968 2968 2969 2970
2926 2923 2922 2920 2920 2919 2919 2918 2918 2918 2918 2918 2919 2920 2921 2922 2922 2923 2924 2925 2925 2925 2925 2925 2926 2925 2926 2926 2927 2927 2927 2927 2927 2928 2928 2928 2928 2928 2929 2929 2929 2929 2930 2930 2931 2931 2932 2933 2933 2934 2935 2936 2937 2938 2939 2940 2942 2943 2945 2946 2947 2948 2949 2949 2950 2951 2952 2952 2953 2954 2955 2956 2957 2957 2958 2959 2959 2960 2961 2962 2963 2963 2964 2965 2966 2967
2922 2919 2917 2916 2915 2914 2914 2913 2913 2912 2912 2912 2913 2914 2916 2917 2917 2918 2918 2919 2920 2920 2921 2921 2921 2921 2921 2921 2922 2923 2923 2923 2923 2923 2923 2923 2924 2924 2924 2924 2925 2925 2926 2926 2927 2927 2928 2928 2929 2930 2931 2932 2933 2934 2935 2937 2938 2939 2941 2942 2943 2944 2945 2946 2946 2947 2948 2948 2949 2950 2951 2952 2953 2953 2954 2955 2956 2957 2957 2958 2959 2960 2961 2962 2962 2963
2917 2915 2913 2911 2910 2910 2909 2908 2908 2908 2907 2907 2907 2908 2910 2911 2912 2913 2913 2914 2915 2915 2916 2916 2916 2916 2916 2917 2917 2918 2918 2918 2918 2918 2918 2919 2919 2919 2920 2920 2921 2921 2922 2922 2923 2923 2924 2924 2925 2926 2927 2928 2929 2930 2932 2933 2934 2935 2937 2938 2939 2940 2941 2942 2943 2943 2944 2945 2945 2946 2947 2948 2948 2949 2950 2951 2952 2953 2954 2955 2956 2957 2957 2958 2959 2959
2911 2910 2909 2907 2906 2905 2904 2904 2903 2903 2902 2902 2902 2902 2903 2905 2906 2907 2908 2909 2910 2911 2911 2912 2912 2912 2912 2912 2913 2913 2913 2913 2913 2913 2914 2914 2914 2915 2915 2916 2916 2917 2917 2918 2918 2919 2920 2920 2921 2922 2923 2924 2925 2926 2928 2929 2930 2932 2933 2934 2935 2936 2937 2938 2938 2939 2940 2941 2942 2942 2943 2944 2945 2946 2946 2947 2948 2949 2950 2951 2952 2953 2954 2954 2955 2956
2905 2905 2904 2903 2901 2900 2900 2899 2899 2898 2898 2897 2897 2897 2898 2899 2900 2902 2903 2904 2905 2906 2907 2907 2908 2908 2908 2908 2908 2908 2908 2908 2909 2909 2909 2909 2909 2910 2911 2911 2912 2913 2913 2913 2914 2915 2916 2917 2918 2918 2919 2920 2921 2923 2924 2925 2926 2928 2929 2930 2931 2932 2933 2934 2935 2936 2936 2937 2938 2938 2939 2940 2941 2942 2943 2943 2944 2946 2947 2948 2948 2949 2950 2951 2952 2952
2900 2899 2899 2898 2897 2896 2895 2894 2894 2894 2893 2893 2893 2893 2893 2894 2895 2896 2898 2899 2900 2901 2902 2903 2903 2903 2904 2904 2903 2903 2903 2903 2904 2904 2904 2905 2905 2905 2906 2907 2908 2908 2909 2909 2910 2911 2912 2913 2914 2914 2915 2917 2918 2919 2920 2921 2923 2923 2925 2926 2927 2928 2929 2930 2931 2932 2933 2933 2934 2935 2936 2936 2937 2938 2939 2940 2941 2942 2943 2944 2945 2946 2947 2947 2948 2949
2895 2894 2893 2893 2893 2892 2891 2890 2889 2889 2889 2888 2888 2888 2888 2889 2890 2891 2892 2894 2895 2897 2898 2898 2898 2898 2899 2899 2899 2898 2898 2898 2899 2899 2900 2900 2900 2901 2902 2902 2903 2903 2904 2905 2906 2907 2908 2908 2909 2910 2912 2913 2913 2915 2916 2917 2918 2919 2921 2922 2923 2924 2925 2926 2927 2928 2929 2929 2930 2931 2932 2932 2933 2934 2935 2936 2937 2938 2939 2940 2941 2942 2943 2943 2944 2945
2890 2890 2889 2888 2888 2887 2887 2886 2885 2885 2885 2884 2883 2883 2884 2885 2886 2887 2888 2889 2890 2892 2893 2893 2893 2894 2894 2894 2894 2894 2893 2893 2894 2894 2895 2896 2896 2897 2897 2898 2898 2899 2900 2901 2902 2903 2903 2904 2905 2906 2907 2908 2909 2911 2912 2913 2914 2915 2917 2918 2919 2920 2921 2922 2923 2924 2925 2926 2926 2927 2928 2928 2929 2930 2931 2932 2933 2934 2935 2937 2938 2938 2939 2940 2941 2941
2885 2885 2884 2883 2883 2883 2882 2882 2881 2881 2880 2880 2879 2879 2880 2881 2882 2883 2883 2884 2885 2887 2888 2888 2888 2889 2890 2890 2890 2889 2889 2889 2889 2890 2891 2891 2892 2892 2893 2893 2894 2895 2896 2897 2897 2898 2899 2900 2901 2902 2903 2904 2905 2906 2908 2909 2910 2911 2913 2914 2915 2916 2917 2918 2919 2919 2921 2921 2922 2923 2924 2924 2925 2926 2927 2928 2929 2931 2932 2933 2933 2934 2935 2936 2937 2938
2881 2881 2880 2879 2878 2878 2878 2878 2877 2877 2876 2876 2876 2876 2876 2877 2878 2878 2878 2879 2880 2882 2883 2883 2884 2885 2885 2885 2885 2885 2885 2885 2885 2886 2887 2887 2888 2888 2889 2889 2890 2891 2892 2892 2893 2894 2895 2895 2896 2897 2898 2899 2901 2902 2903 2904 2906 2907 2908 2909 2911 2912 2913 2914 2914 2915 2916 2917 2918 2919 2920 2921 2922 2923 2923 2925 2926 2927 2928 2929 2930 2931 2932 2932 2933 2934
2877 2876 2875 2874 2874 2874 2873 2873 2873 2872 2872 2872 2872 2872 2873 2873 2873 2873 2874 2875 2876 2878 2879 2879 2879 2880 2881 2881 2881 2881 2881 2881 2882 2882 2883 2884 2884 2885 2885 2885 2886 2887 2888 2888 2888 2889 2890 2891 2892 2893 2894 2895 2896 2898 2899 2900 2902 2903 2904 2905 2906 2908 2908 2909 2910 2911 2912 2913 2914 2915 2916 2917 2918 2919 2920 2921 2922 2923 2924 2925 2926 2927 2928 2928 2929 2930
2873 2872 2871 2870 2870 2869 2869 2869 2868 2868 2868 2869 2869 2869 2869 2869 2869 2869 2870 2871 2872 2874 2874 2874 2875 2875 2876 2877 2878 2878 2878 2878 2878 2878 2879 2880 2881 2881 2882 2882 2882 2883 2884 2884 2884 2885 2886 2887 2887 2888 2889 2891 2892 2893 2894 2896 2897 2898 2900 2901 2902 2903 2904 2905 2906 2907 2908 2909 2910 2911 2912 2913 2914 2915 2916 2917 2918 2919 2920 2921 2922 2923 2924 2925 2925 2926
2869 2868 2867 2866 2866 2866 2866 2865 2865 2865 2865 2866 2866 2865 2865 2865 2866 2866 2867 2867 2868 2869 2870 2870 2870 2871 2872 2873 2873 2874 2874 2874 2874 2875 2876 2876 2877 2878 2878 2878 2878 2879 2880 2880 2881 2882 2882 2883 2883 2884 2885 2886 2888 2889 2890 2891 2893 2894 2895 2897 2898 2899 2900 2901 2902 2903 2904 2905 2906 2907 2908 2909 2910 2911 2913 2913 2914 2916 2916 2917 2918 2919 2920 2921 2921 2922
2865 2864 2863 2863 2863 2862 2863 2862 2862 2862 2862 2863 2863 2863 2863 2863 2863 2863 2863 2864 2865 2865 2866 2866 2867 2867 2868 2869 2870 2870 2871 2871 2871 2871 2872 2873 2873 2874 2874 2874 2875 2875 2877 2877 2878 2878 2878 2879 2879 2880 2881 2882 2883 2885 2886 2887 2888 2890 2891 2893 2894 2895 2896 2898 2898 2899 2900 2902 2902 2903 2904 2906 2907 2908 2908 2910 2911 2912 2913 2913 2914 2915 2916 2917 2917 2918
2860 2860 2859 2859 2859 2859 2859 2859 2859 2859 2859 2860 2860 2860 2860 2860 2860 2860 2860 2861 2861 2862 2862 2863 2863 2863 2864 2865 2866 2867 2867 2867 2867 2867 2868 2868 2870 2871 2871 2871 2871 2872 2873 2873 2874 2874 2875 2875 2875 2876 2877 2878 2879 2880 2881 2883 2884 2886 2887 2889 2890 2891 2893 2893 2894 2896 2897 2898 2899 2900 2901 2902 2903 2904 2905 2906 2907 2908 2909 2910 2910 2911 2912 2913 2913 2914
2856 2855 2855 2855 2855 2855 2856 2856 2856 2856 2856 2857 2858 2858 2857 2857 2857 2857 2857 2858 2858 2858 2859 2859 2859 2860 2861 2862 2862 2862 2863 2863 2863 2863 2864 2865 2866 2867 2868 2868 2868 2868 2869 2870 2870 2871 2871 2871 2872 2873 2873 2874 2875 2876 2878 2879 2880 2882 2883 2885 2886 2888 2888 2889 2891 2892 2893 2894 2895 2896 2897 2898 2899 2900 2901 2902 2903 2904 2905 2906 2907 2907 2908 2908 2909 2910
2852 2851 2850 2850 2851 2852 2852 2852 2852 2853 2853 2854 2854 2854 2853 2853 2853 2853 2854 2855 2855 2855 2855 2856 2856 2856 2857 2858 2858 2858 2858 2859 2859 2860 2861 2863 2863 2864 2864 2864 2864 2865 2866 2866 2867 2867 2868 2868 2868 2869 2870 2870 2871 2873 2874 2875 2877 2878 2880 2881 2882 2883 2884 2886 2887 2888 2889 2890 2891 2892 2893 2894 2895 2897 2898 2899 2900 2901 2901 2902 2903 2903 2904 2905 2905 2906
2848 2847 2847 2847 2847 2847 2847 2848 2849 2850 2850 2850 2850 2850 2850 2850 2851 2851 2851 2852 2852 2852 2852 2853 2853 2853 2854 2854 2854 2854 2855 2856 2856 2857 2858 2859 2860 2861 2861 2861 2861 2861 2862 2863 2863 2864 2864 2864 2865 2865 2866 2867 2868 2869 2870 2872 2873 2874 2876 2877 2878 2880 2881 2882 2883 2884 2885 2887 2888 2888 2890 2891 2892 2893 2894 2895 2896 2897 2898 2898 2899 2899 2900 2901 2901 2902
2845 2844 2844 2844 2844 2843 2843 2844 2845 2846 2846 2846 2846 2846 2847 2848 2848 2848 2848 2849 2849 2849 2849 2849 2850 2850 2850 2850 2850 2851 2852 2853 2853 2854 2855 2856 2857 2858 2858 2858 2857 2858 2858 2859 2860 2860 2860 2861 2861 2862 2863 2863 2864 2866 2867 2868 2870 2871 2873 2873 2875 2876 2877 2878 2879 2881 2882 2883 2884 2885 2886 2887 2888 2889 2890 2891 2892 2893 2894 2895 2895 2896 2896 2896 2897 2898
2843 2842 2842 2842 2841 2840 2840 2841 2841 2842 2843 2843 2842 2842 2843 2844 2844 2845 2845 2845 2845 2845 2845 2846 2846 2846 2846 2847 2848 2848 2849 2850 2851 2851 2852 2853 2853 2854 2855 2854 2854 2854 2855 2856 2856 2857 2857 2857 2858 2858 2859 2860 2861 2862 2863 2865 2866 2868 2869 2870 2871 2873 2874 2875 2876 2877 2878 2879 2880 2881 2882 2883 2884 2886 2887 2888 2888 2889 2890 2891 2892 2892 2893 2893 2893 2894
2842 2840 2839 2838 2838 2838 2837 2838 2838 2838 2839 2838 2838 2839 2840 2840 2841 2842 2842 2841 2841 2841 2842 2842 2843 2843 2843 2844 2845 2846 2846 2847 2848 2848 2848 2849 2850 2851 2851 2851 2851 2851 2852 2853 2853 2853 2854 2854 2855 2855 2856 2857 2858 2859 2861 2862 2863 2864 2866 2867 2868 2869 2870 2871 2873 2873 2874 2875 2876 2878 2878 2880 2881 2882 2883 2884 2885 2886 2887 2887 2888 2888 2889 2889 2890 2890
2840 2838 2837 2836 2836 2836 2835 2835 2835 2835 2835 2835 2835 2836 2836 2837 2838 2838 2838 2838 2838 2838 2838 2839 2839 2840 2841 2842 2842 2843 2843 2844 2844 2845 2845 2846 2846 2847 2847 2847 2848 2848 2849 2850 2850 2851 2851 2851 2852 2853 2853 2854 2855 2857 2858 2859 2860 2861 2862 2863 2865 2866 2867 2868 2869 2870 2871 2872 2873 2874 2875 2876 2878 2878 2880 2881 2882 2883 2883 2884 2884 2885 2885 2886 2886 2886
2838 2837 2835 2834 2833 2833 2833 2833 2832 2832 2832 2832 2832 2833 2833 2834 2834 2834 2834 2834 2834 2835 2836 2836 2836 2836 2837 2838 2839 2839 2841 2841 2841 2841 2842 2842 2843 2843 2844 2844 2845 2845 2846 2847 2848 2848 2848 2848 2849 2849 2850 2851 2853 2854 2855 2856 2857 2858 2859 2860 2861 2863 2863 2864 2865 2866 2868 2868 2869 2870 2872 2873 2874 2875 2876 2877 2878 2879 2880 2880 2881 2882 2882 2882 2882 2882
2835 2834 2833 2832 2831 2830 2830 2829 2829 2829 2829 2829 2829 2830 2830 2831 2831 2830 2830 2830 2832 2832 2832 2832 2833 2833 2834 2834 2835 2836 2838 2838 2838 2838 2838 2839 2839 2840 2841 2842 2842 2843 2843 2844 2844 2845 2845 2845 2846 2847 2848 2848 2850 2851 2852 2853 2854 2855 2856 2857 2858 2859 2860 2861 2862 2863 2864 2865 2866 2867 2868 2869 2870 2872 2873 2873 2874 2875 2876 2877 2878 2878 2878 2878 2878 2878
2833 2832 2831 2830 2829 2828 2827 2826 2826 2826 2826 2827 2827 2827 2827 2827 2827 2827 2826 2828 2829 2829 2828 2828 2829 2830 2831 2831 2832 2833 2833 2834 2834 2835 2835 2836 2836 2837 2838 2839 2839 2840 2840 2841 2842 2842 2842 2843 2843 2844 2845 2846 2847 2848 2849 2850 2851 2852 2853 2854 2855 2856 2857 2858 2859 2860 2861 2862 2863 2864 2865 2866 2867 2868 2869 2870 2871 2872 2873 2873 2874 2874 2875 2874 2874 2874
2830 2829 2828 2828 2828 2827 2826 2824 2823 2823 2823 2823 2824 2824 2823 2823 2823 2823 2824 2826 2826 2825 2825 2825 2826 2827 2828 2828 2828 2829 2829 2830 2831 2832 2833 2833 2833 2834 2835 2836 2836 2837 2838 2838 2838 2839 2839 2840 2841 2842 2843 2843 2844 2845 2846 2847 2848 2849 2849 2850 2851 2852 2853 2854 2855 2857 2858 2858 2860 2861 2862 2863 2864 2865 2866 2867 2868 2868 2869 2870 2871 2871 2871 2870 2870 2870
2828 2827 2826 2826 2825 2825 2824 2823 2822 2821 2821 2821 2821 2821 2820 2819 2819 2820 2822 2823 2823 2822 2822 2823 2823 2824 2824 2825 2825 2825 2825 2827 2828 2829 2830 2830 2830 2831 2833 2833 2833 2834 2835 2835 2835 2836 2836 2837 2838 2839 2840 2841 2842 2843 2843 2844 2845 2846 2846 2847 2848 2849 2850 2851 2853 2853 2854 2855 2856 2857 2858 2859 2860 2861 2862 2863 2864 2865 2866 2867 2867 2867 2867 2866 2866 2866
2826 2825 2824 2824 2823 2823 2822 2822 2821 2820 2819 2819 2819 2818 2818 2817 2816 2816 2818 2819 2819 2819 2819 2820 2820 2821 2821 2822 2822 2821 2822 2824 2825 2826 2827 2827 2828 2828 2830 2830 2830 2831 2832 2832 2832 2833 2833 2834 2836 2837 2838 2838 2839 2840 2841 2841 2842 2843 2843 2844 2845 2846 2847 2848 2849 2850 2851 2852 2853 2854 2855 2856 2857 2858 2858 2859 2860 2861 2862 2863 2863 2863 2863 2862 2862 2862
2824 2823 2823 2822 2822 2821 2820 2820 2819 2818 2818 2818 2817 2817 2816 2815 2814 2813 2814 2815 2816 2816 2817 2817 2817 2818 2818 2818 2818 2818 2819 2821 2822 2823 2824 2824 2825 2826 2826 2827 2827 2828 2828 2828 2829 2830 2830 2831 2833 2834 2835 2836 2836 2837 2838 2838 2839 2840 2840 2841 2842 2843 2844 2846 2846 2847 2848 2849 2850 2850 2851 2852 2853 2854 2855 2856 2857 2858 2858 2859 2860 2859 2859 2858 2858 2858
2822 2822 2821 2821 2820 2819 2819 2818 2817 2817 2816 2816 2815 2815 2815 2814 2814 2812 2811 2811 2812 2813 2813 2814 2814 2815 2815 2815 2815 2816 2817 2818 2819 2820 2820 2821 2822 2823 2823 2823 2824 2824 2825 2825 2826 2827 2828 2828 2830 2831 2832 2833 2833 2834 2835 2835 2836 2837 2838 2838 2839 2840 2842 2843 2843 2844 2844 2845 2846 2847 2848 2849 2850 2851 2852 2852 2853 2854 2855 2855 2856 2856 2855 2855 2854 2854
2820 2820 2819 2819 2818 2818 2817 2816 2816 2815 2814 2813 2813 2813 2813 2813 2813 2812 2810 2809 2809 2810 2810 2811 2812 2812 2812 2812 2813 2813 2814 2815 2816 2817 2817 2818 2818 2819 2820 2820 2821 2821 2822 2822 2823 2823 2824 2825 2827 2828 2829 2829 2830 2831 2832 2832 2833 2834 2834 2835 2836 2838 2838 2839 2840 2841 2841 2842 2843 2844 2844 2845 2846 2847 2848 2849 2849 2850 2851 2852 2852 2852 2851 2851 2850 2850
2817 2817 2817 2817 2816 2816 2815 2814 2814 2813 2812 2812 2811 2811 2811 2810 2810 2810 2809 2808 2807 2807 2808 2808 2809 2809 2809 2809 2810 2810 2811 2813 2814 2814 2814 2814 2815 2816 2816 2817 2818 2818 2819 2819 2820 2820 2821 2822 2823 2824 2825 2826 2827 2828 2828 2829 2830 2831 2832 2833 2833 2835 2836 2837 2837 2838 2838 2839 2839 2840 2841 2842 2843 2843 2844 2845 2846 2847 2847 2848 2848 2848 2848 2847 2847 2847
2815 2815 2815 2814 2814 2813 2813 2813 2812 2811 2810 2810 2809 2808 2808 2808 2808 2808 2807 2806 2805 2804 2805 2806 2806 2807 2807 2807 2807 2808 2808 2810 2811 2811 2811 2811 2812 2813 2813 2813 2814 2815 2816 2816 2817 2817 2818 2819 2820 2821 2822 2823 2824 2824 2825 2826 2827 2828 2829 2830 2831 2832 2833 2833 2834 2835 2835 2836 2836 2837 2838 2838 2839 2840 2841 2842 2842 2843 2843 2843 2844 2844 2844 2843 2843 2843
2811 2812 2812 2812 2812 2811 2811 2811 2810 2809 2808 2808 2807 2806 2806 2806 2805 2805 2805 2804 2803 2803 2802 2803 2803 2804 2804 2804 2805 2805 2805 2806 2807 2807 2808 2808 2808 2809 2810 2810 2811 2812 2813 2813 2814 2814 2815 2816 2817 2817 2818 2819 2820 2822 2823 2824 2824 2825 2826 2827 2828 2829 2830 2830 2831 2831 2832 2832 2833 2833 2834 2835 2836 2836 2837 2838 2838 2839 2839 2839 2840 2840 2840 2840 2839 2839
2808 2808 2809 2809 2809 2809 2808 2808 2808 2808 2807 2806 2805 2804 2804 2803 2803 2803 2803 2802 2801 2801 2800 2800 2800 2801 2802 2802 2802 2802 2803 2803 2803 2803 2804 2804 2805 2806 2806 2807 2808 2809 2809 2810 2811 2812 2812 2813 2813 2814 2815 2816 2817 2819 2820 2821 2822 2823 2823 2824 2825 2826 2826 2827 2828 2828 2828 2829 2829 2830 2831 2832 2832 2833 2833 2834 2834 2835 2835 2835 2836 2836 2836 2836 2835 2835
2804 2804 2805 2806 2806 2806 2806 2806 2806 2805 2805 2804 2803 2803 2802 2801 2801 2800 2800 2800 2799 2798 2798 2798 2798 2798 2798 2799 2799 2800 2800 2800 2800 2800 2800 2801 2801 2802 2803 2804 2804 2805 2806 2807 2808 2809 2809 2809 2810 2811 2812 2813 2814 2816 2817 2818 2819 2820 2820 2821 2822 2823 2823 2824 2825 2825 2825 2826 2826 2827 2828 2828 2828 2829 2830 2830 2831 2831 2831 2832 2832 2832 2832 2832 2831 2831
2802 2802 2802 2803 2803 2803 2803 2803 2803 2803 2803 2802 2801 2801 2800 2799 2798 2798 2798 2797 2797 2796 2796 2795 2795 2795 2795 2796 2796 2797 2797 2797 2797 2797 2797 2797 2798 2798 2799 2800 2801 2802 2803 2804 2805 2806 2806 2806 2807 2808 2809 2810 2812 2813 2814 2815 2816 2817 2818 2818 2818 2819 2820 2821 2822 2822 2822 2823 2823 2823 2824 2824 2825 2825 2826 2826 2827 2827 2827 2827 2828 2828 2828 2828 2828 2827
2799 2799 2799 2799 2800 2800 2800 2800 2800 2800 2800 2799 2799 2798 2798 2797 2796 2796 2795 2795 2794 2794 2793 2793 2793 2793 2792 2793 2793 2793 2793 2794 2794 2794 2793 2794 2794 2795 2795 2796 2797 2798 2800 2801 2802 2802 2803 2804 2804 2805 2806 2808 2809 2810 2811 2812 2813 2814 2814 2815 2815 2816 2817 2818 2818 2818 2819 2819 2820 2820 2821 2821 2822 2822 2822 2822 2823 2823 2823 2823 2823 2823 2823 2823 2823 2823
2796 2796 2796 2796 2796 2796 2796 2796 2796 2796 2796 2796 2796 2796 2795 2795 2794 2793 2793 2792 2791 2791 2791 2790 2790 2790 2790 2790 2790 2790 2791 2791 2791 2791 2791 2791 2791 2792 2792 2793 2794 2795 2796 2797 2798 2799 2800 2801 2802 2803 2803 2805 2806 2807 2808 2809 2810 2811 2811 2812 2813 2813 2814 2814 2815 2815 2816 2816 2817 2817 2818 2818 2818 2818 2818 2818 2818 2818 2818 2819 2819 2819 2819 2819 2819 2819
2794 2793 2793 2793 2793 2793 2793 2793 2792 2792 2793 2793 2793 2793 2793 2793 2792 2791 2790 2789 2789 2788 2788 2788 2787 2787 2787 2787 2787 2787 2788 2788 2788 2789 2788 2788 2788 2788 2789 2789 2790 2792 2793 2794 2795 2796 2797 2798 2799 2800 2801 2802 2803 2804 2805 2806 2807 2808 2808 2809 2810 2810 2810 2811 2812 2812 2812 2813 2813 2813 2814 2814 2814 2814 2814 2814 2814 2814 2814 2814 2814 2815 2815 2815 2815 2815
2791 2791 2790 2790 2790 2790 2790 2789 2789 2789 2789 2789 2790 2790 2790 2790 2789 2788 2788 2787 2786 2786 2786 2785 2785 2785 2784 2784 2783 2784 2784 2785 2786 2786 2786 2786 2786 2786 2786 2787 2787 2788 2789 2790 2791 2793 2794 2795 2796 2798 2799 2800 2800 2801 2802 2803 2804 2805 2805 2806 2806 2807 2807 2808 2808 2808 2808 2808 2809 2810 2810 2810 2810 2810 2810 2810 2810 2810 2810 2810 2810 2810 2810 2811 2811 2811
2788 2788 2788 2787 2787 2787 2787 2786 2786 2786 2786 2786 2786 2787 2787 2787 2786 2786 2785 2784 2784 2783 2783 2783 2783 2783 2782 2781 2781 2781 2781 2782 2783 2783 2783 2783 2783 2783 2783 2783 2784 2785 2786 2787 2788 2789 2791 2792 2793 2795 2796 2797 2797 2798 2798 2800 2801 2802 2802 2803 2803 2803 2803 2804 2805 2805 2804 2805 2805 2806 2806 2806 2806 2806 2805 2805 2805 2805 2806 2806 2806 2806 2806 2807 2807 2807
2786 2785 2785 2785 2784 2784 2784 2784 2783 2783 2783 2783 2783 2783 2783 2783 2783 2783 2782 2782 2781 2781 2780 2780 2780 2780 2779 2779 2779 2779 2779 2779 2779 2780 2780 2780 2780 2780 2780 2780 2781 2782 2783 2784 2785 2786 2788 2789 2790 2792 2793 2793 2794 2794 2795 2796 2798 2798 2799 2800 2800 2799 2800 2800 2801 2801 2801 2801 2802 2802 2802 2802 2802 2801 2800 2800 2801 2801 2801 2801 2801 2802 2802 2803 2803 2803
2783 2783 2783 2782 2782 2781 2781 2781 2781 2780 2780 2780 2780 2780 2780 2780 2780 2780 2780 2779 2779 2778 2778 2778 2777 2777 2776 2777 2777 2777 2777 2777 2777 2777 2777 2777 2777 2778 2778 2778 2779 2779 2780 2781 2783 2784 2785 2786 2788 2789 2790 2790 2790 2791 2792 2793 2794 2795 2796 2796 2796 2796 2796 2797 2797 2798 2798 2798 2798 2798 2798 2798 2797 2796 2796 2796 2796 2796 2796 2797 2797 2798 2798 2798 2799 2799
2780 2780 2780 2779 2779 2778 2778 2778 2778 2778 2777 2777 2777 2777 2777 2777 2777 2777 2777 2777 2777 2776 2775 2775 2774 2774 2774 2774 2774 2774 2775 2775 2775 2775 2775 2775 2775 2775 2775 2776 2777 2778 2778 2780 2781 2782 2783 2784 2785 2786 2786 2787 2787 2788 2788 2790 2791 2792 2792 2793 2793 2793 2793 2793 2794 2794 2794 2794 2794 2794 2794 2793 2793 2792 2792 2791 2791 2791 2791 2792 2793 2793 2794 2795 2795 2795
2778 2777 2777 2777 2776 2775 2775 2775 2774 2774 2774 2774 2774 2774 2774 2774 2774 2774 2774 2774 2774 2773 2773 2772 2772 2772 2772 2772 2772 2773 2773 2773 2773 2773 2773 2773 2773 2773 2773 2774 2775 2776 2777 2778 2779 2780 2780 2781 2782 2783 2783 2784 2784 2785 2786 2787 2788 2788 2789 2789 2789 2790 2790 2790 2790 2791 2790 2790 2790 2790 2790 2789 2788 2788 2788 2787 2786 2786 2787 2788 2788 2789 2790 2791 2791 2791
2774 2774 2774 2774 2773 2773 2772 2772 2771 2771 2771 2771 2771 2771 2771 2771 2771 2771 2771 2771 2771 2770 2770 2769 2769 2769 2769 2769 2770 2771 2771 2771 2771 2771 2772 2772 2772 2772 2772 2773 2773 2774 2775 2776 2777 2777 2778 2778 2779 2779 2780 2781 2782 2783 2783 2784 2785 2786 2786 2786 2786 2786 2786 2786 2787 2787 2787 2786 2786 2786 2786 2785 2785 2784 2783 2783 2782 2782 2783 2783 2784 2785 2787 2787 2787 2787
2772 2772 2771 2771 2771 2770 2770 2769 2768 2768 2768 2768 2768 2768 2768 2768 2768 2768 2768 2768 2767 2767 2767 2767 2767 2767 2767 2768 2768 2768 2769 2769 2769 2770 2770 2770 2771 2771 2771 2772 2772 2773 2773 2774 2774 2775 2776 2776 2776 2776 2777 2779 2780 2781 2781 2782 2782 2783 2783 2783 2783 2783 2783 2783 2783 2783 2783 2783 2782 2782 2781 2781 2781 2780 2780 2779 2778 2778 2778 2779 2780 2781 2782 2783 2783 2782